Location: Saint Margaret at Cliffe
(51.1500°N, 1.3167°E)
Time: 11:36:48
(UTC+00:00)

Daily predictions for brighter satellites

Satellite Brightness Start Highest point End
(mag) Time Altitude Azimuth Time Altitude Azimuth Time Altitude Azimuth
CZ-4C R/B 3.3 16:15:28 10° NW 16:21:39 41° NNE 16:29:01 10° E
USA 305 3.0 16:24:04 10° W 16:28:18 71° NNW 16:32:32 10° ENE
CZ-4B R/B 2.9 16:24:30 10° SSE 16:28:27 53° ENE 16:32:12 10° N
SMAP 3.5 16:25:56 10° SE 16:30:15 39° ENE 16:34:36 10° N
Cosmos 1092 Rocket 4.5 16:25:16 10° N 16:31:13 39° ENE 16:37:06 10° SE
CZ-2C R/B 2.9 16:27:27 10° SSE 16:32:19 68° ENE 16:37:04 10° N
Cosmos 1898 Rocket 3.7 16:27:41 10° NNW 16:32:49 49° ENE 16:37:53 10° SE
Cosmos 44 3.8 16:28:30 10° NW 16:33:19 64° SW 16:37:48 10° SSE
Cosmos 1805 Rocket 4.4 16:29:49 10° N 16:33:34 27° ENE 16:37:17 10° SE
Cosmos 1461 4.0 16:29:58 10° WSW 16:33:50 35° NW 16:37:37 10° NNE
Sich 1 4.1 16:30:44 10° NNE 16:34:10 23° ENE 16:37:36 10° ESE
Okean 3 Rocket 4.2 16:32:37 10° NNW 16:37:05 62° W 16:41:30 10° S
Cosmos 2360 Rocket 4.0 16:34:56 10° N 16:37:20 13° NNE 16:39:42 10° NE
Cosmos 1842 Rocket 3.7 16:35:37 10° S 16:39:58 56° E 16:44:22 10° NNE
Cosmos 2221 2.5 16:35:49 10° S 16:40:02 63° E 16:44:19 10° NNE
Cosmos 1513 Rocket 4.5 16:34:23 10° S 16:40:30 78° E 16:46:45 10° NNE
SL-08 R/B 3.3 16:39:54 10° NNE 16:44:41 75° ESE 16:49:19 10° S
deb Kosmos-1763 4.2 16:45:59 10° SSW 16:49:23 68° WNW 16:52:48 10° NNE
Cosmos 2084 3.6 16:45:13 10° NW 16:49:29 81° SW 16:53:56 10° SE
Cosmos 1656 4.0 16:44:28 10° NNW 16:49:59 73° WSW 16:55:34 10° SSE
AQUARIUS 4.3 16:49:27 10° SE 16:53:48 53° ENE 16:58:11 10° N
NOSS 2-1 (E) 3.8 16:51:42 10° WSW 16:54:47 41° NW 16:58:03 11° NE
FengYun 1-2 T 4.2 16:49:42 10° SSE 16:55:17 80° ENE 17:00:51 10° NNW
MOS 1 Rocket 4.4 16:50:30 10° N 16:55:25 47° WNW 17:00:01 10° SW
NOSS 2-2 (C) 4.2 16:51:12 10° NW 16:55:52 57° NE 17:02:21 10° ESE
H-2A R/B 2.4 16:51:32 10° SE 16:56:16 39° ENE 17:00:56 10° N
Cosmos 2034 Rocket 4.0 16:50:47 10° S 16:56:51 67° E 17:02:59 10° NNE
Cosmos 1666 4.1 16:54:39 10° NNE 16:57:11 17° ENE 16:59:43 10° ESE
ERBS 2.6 16:54:10 10° WSW 16:57:19 54° NNW 16:59:46 15° NE
Cosmos 2322 Rocket 3.7 16:53:32 10° NNW 16:57:22 18° NNE 17:00:05 13° ENE
USA 306 3.1 16:56:11 10° W 17:00:24 62° N 17:03:44 16° ENE
Cosmos 1697 Rocket 2.6 16:55:43 10° NNW 17:01:23 77° ENE 17:06:59 10° SE
Cosmos 1271 Rocket 4.2 16:58:19 10° SW 17:02:02 38° WNW 17:05:48 10° N
USA 267 3.4 16:58:13 12° ENE 17:04:17 70° SE 17:10:49 10° SW
Cosmos 2369 3.8 16:59:00 10° NNW 17:04:41 59° NE 17:10:20 10° SE
Cosmos 1980 Rocket 2.4 16:59:37 10° NNW 17:05:09 49° NE 17:10:37 10° SE
COSMO-SKYMED 1 3.9 17:05:07 16° ENE 17:06:56 20° E 17:10:06 10° SE
Cosmos 1763 Rocket 3.5 17:03:30 10° S 17:08:27 58° ESE 17:13:29 10° NNE
Cosmos 1939 Rocket 2.9 17:05:46 10° SSE 17:09:54 88° W 17:14:00 10° NNW
SL-24 R/B - RUBIN 2 3.6 17:05:30 10° NW 17:10:08 58° NE 17:14:26 10° ESE
Meteor 1-25 Rocket 4.1 17:04:46 10° N 17:10:22 77° ENE 17:15:58 10° SSE
Meteor 2-21 4.5 17:05:12 10° N 17:11:12 55° ENE 17:17:07 10° SSE
Cosmos 841 Rocket 4.2 17:09:35 10° SSE 17:14:05 31° ESE 17:17:16 17° NE
Cosmos 1937 Rocket 3.5 17:09:06 10° NNW 17:14:27 75° ENE 17:19:46 10° SSE
SL-16 R/B 3.3 17:10:13 10° NNW 17:14:49 24° NE 17:17:26 18° ENE
Cosmos 1812 3.9 17:13:11 10° SE 17:16:07 21° E 17:16:31 21° ENE
Cosmos 1633 Rocket 3.9 17:13:43 10° N 17:17:32 28° ENE 17:21:20 10° SE
Cosmos 1634 Rocket 4.2 17:12:33 10° SSE 17:18:36 49° E 17:24:40 10° NNE
USA 307 3.1 17:14:30 10° W 17:18:44 60° N 17:21:20 22° ENE
USA 229 DEB 4.2 17:11:49 10° NW 17:19:03 72° SW 17:26:47 10° SSE
USA 229 4.2 17:11:54 10° NW 17:19:09 72° SW 17:26:52 10° SSE
Cosmos 2082 Rocket 3.0 17:16:40 10° SSE 17:21:34 31° ESE 17:24:28 20° ENE
YAOGAN 1 3.9 17:22:20 20° NE 17:22:20 20° NE 17:25:00 10° NNE
Cosmos 2333 Rocket 4.0 17:19:54 10° N 17:22:54 14° NNE 17:24:10 13° NE
Cosmos 2026 Rocket 3.9 17:16:57 10° N 17:23:08 71° ENE 17:29:11 10° SSE
NOAA 6 4.2 17:18:07 10° S 17:23:16 76° WSW 17:28:26 10° NNW
SeaSat 1 4.4 17:20:11 10° NNE 17:23:59 23° NW 17:27:47 10° W
Cosmos 2195 Rocket 4.4 17:20:11 10° N 17:26:21 85° ENE 17:32:34 10° S
CZ-4B DEB 4.2 17:22:19 10° SSE 17:27:51 88° WSW 17:33:23 10° NNW
CORIOLIS 4.3 17:22:34 10° SSE 17:27:59 79° WSW 17:33:27 10° NNW
ATLAS 2AS CENTAUR R/B 3.9 17:21:31 10° WNW 17:28:23 33° NNW 17:33:27 16° NE
Cosmos 372 Rocket 3.9 17:23:32 10° NNW 17:28:46 65° ENE 17:33:58 10° SE
Cosmos 1602 3.7 17:25:10 10° N 17:29:02 89° W 17:32:54 10° S
Cosmos 2278 3.8 17:23:31 10° NNW 17:29:09 54° NE 17:34:43 10° SE
Okean O Rocket 1.9 17:26:52 10° SE 17:31:04 42° ENE 17:35:18 10° N
Cosmos 1743 Rocket 4.2 17:26:52 10° NNW 17:31:08 58° W 17:35:21 10° S
ATLAS CENTAUR R/B 3.3 17:29:46 10° WNW 17:33:17 23° NNW 17:36:14 13° NNE
SL-16 R/B 4.5 17:33:32 10° NNW 17:34:55 11° NNW 17:36:17 10° N
Meteor 2-14 Rocket 4.3 17:29:12 10° N 17:35:21 80° E 17:41:26 10° SSE
Cosmos 1782 2.8 17:32:59 10° S 17:36:54 57° E 17:39:44 18° NNE
Cosmos 1151 Rocket 3.6 17:33:03 10° SSE 17:36:57 34° E 17:38:08 29° ENE
COSMOS 2406 3.2 17:33:22 10° SSW 17:39:01 63° ESE 17:43:04 20° NE
USA 234 4.1 17:33:22 10° SE 17:39:44 52° SW 17:46:06 10° WNW
COSMOS 2455 3.2 17:35:05 10° S 17:40:47 46° ESE 17:43:55 25° ENE
USA 308 3.1 17:37:00 10° W 17:41:13 57° N 17:42:51 34° ENE
Cosmos 1666 Rocket 3.6 17:38:11 10° N 17:42:36 56° ENE 17:46:56 10° SSE
ARGOS 3.1 17:39:29 10° SSE 17:44:48 60° ENE 17:50:08 10° N
Cosmos 1833 Rocket 2.6 17:39:55 10° SSW 17:45:33 86° ESE 17:49:48 18° NNE
Cosmos 1470 Rocket 4.3 17:41:35 10° N 17:45:00 31° NE 17:45:00 31° NE
ISS -3.2 17:45:35 10° W 17:48:57 56° SSW 17:50:10 33° SE
NOSS 2-2 (D) 4.4 17:44:13 10° NW 17:49:12 78° SW 17:56:13 10° SE
Cosmos 1328 Rocket 4.2 17:47:16 10° SSE 17:50:52 34° ESE 17:50:52 34° ESE
CZ-2D R/B 3.7 17:48:37 10° S 17:52:25 63° WSW 17:56:14 10° NNW
Cosmos 2219 Rocket 3.9 17:49:09 10° N 17:52:22 15° NNE 17:52:22 15° NNE
SKYMED 2 3.6 17:53:45 34° NE 17:55:21 53° E 17:59:36 10° S
CZ-4 R/B 4.3 17:51:25 10° SSE 17:55:30 65° ENE 17:59:38 10° N
Lacrosse 5 rocket 1.3 17:52:02 10° WNW 17:55:52 57° NNE 17:56:31 50° ENE
Meteor 2-21 Rocket 4.3 17:50:57 10° N 17:57:07 86° ENE 18:03:11 10° S
CZ-4 R/B 3.3 17:59:49 17° N 17:59:49 17° N 18:00:54 10° N
Cosmos 2298 Rocket 4.3 17:53:59 10° NNW 17:59:05 44° ENE 18:00:27 37° E
Landsat 5 4.0 18:00:26 37° SE 18:00:26 37° SE 18:03:31 10° S
Cosmos 1570 Rocket 4.3 17:56:31 10° S 18:01:25 42° ESE 18:02:05 40° E
CZ-4B R/B 3.1 17:56:21 10° SSE 18:01:47 85° WSW 18:07:09 10° NNW
ATLAS CENTAUR R/B 2.4 17:53:24 10° SW 18:02:04 79° SSE 18:03:24 45° ENE
Cosmos 1500 3.8 17:59:39 10° NNW 18:03:20 56° W 18:06:59 10° S
CZ-2C R/B 2.5 17:59:22 17° NNE 18:03:21 64° ESE 18:08:28 10° S
SL-08 RB Rocket 3.7 18:00:01 10° SSE 18:04:34 61° ENE 18:09:08 10° N
GEOS 3 Rocket 3.5 18:02:09 28° ESE 18:04:58 72° NE 18:10:10 10° NW
Cosmos 540 Rocket 3.4 18:00:10 10° SSW 18:05:17 85° WNW 18:08:24 24° NNE
Meteor 1-11 Rocket 4.0 18:01:34 10° N 18:06:54 43° ENE 18:07:51 39° E
Cosmos 1818 3.5 18:01:27 10° NW 18:06:56 66° NE 18:09:03 37° ESE
USA 305 2.9 18:04:16 10° WNW 18:08:28 60° N 18:08:56 56° NE
Cosmos 1814 Rocket 4.0 18:04:01 10° S 18:09:06 54° ESE 18:10:09 46° ENE
Cosmos 44 Rocket 3.2 18:05:47 10° NW 18:10:45 66° NE 18:11:47 51° E
CZ-4C R/B 2.9 18:03:55 10° NW 18:10:58 86° SW 18:19:20 10° SE
Sich 1 4.2 18:07:57 10° NNW 18:12:02 44° W 18:16:07 10° SSW
Meteor 1-26 Rocket 4.5 18:06:41 10° SSW 18:12:41 78° WNW 18:18:46 10° N
Feng Yun 1-1 Rocket 4.2 18:14:42 10° SSE 18:20:37 78° ENE 18:26:30 10° NNW
Cosmos 2360 Rocket 3.2 18:18:10 10° NNW 18:22:13 30° NNE 18:22:13 30° NNE
COSMOS 2428 4.5 18:24:57 10° NNW 18:27:32 17° NNE 18:27:32 17° NNE
deb Chang Zheng 4 4.5 18:24:46 10° S 18:28:56 48° W 18:33:08 10° NNW
Cosmos 1666 3.6 18:29:24 10° NNW 18:32:59 46° W 18:36:32 10° SSW
ERBS 4.5 18:30:52 10° WNW 18:32:20 20° NW 18:32:20 20° NW
Cosmos 2208 Rocket 4.1 18:28:47 10° S 18:33:46 61° SE 18:33:46 61° SE
H-2A R/B 3.6 18:31:01 10° SSW 18:35:45 36° W 18:40:24 10° NNW
Cosmos 2150 Rocket 3.8 18:31:53 10° NNW 18:37:02 76° ENE 18:37:02 76° ENE
USA 306 3.5 18:36:20 10° WNW 18:39:44 51° NW 18:39:44 51° NW
Cosmos 2322 Rocket 2.4 18:37:03 10° NNW 18:41:56 54° NNE 18:41:56 54° NNE
COSMO-SKYMED 1 3.2 18:42:21 42° NNW 18:43:27 55° WNW 18:47:40 10° SSW
USA 267 3.4 18:45:34 47° NE 18:47:18 63° NNW 18:53:45 10° W
Cosmos 2279 Rocket 4.3 18:41:58 10° SSW 18:48:07 64° WNW 18:54:19 10° N
Cosmos 1980 Rocket 3.7 18:43:55 10° NW 18:49:01 35° WSW 18:54:04 10° S
Cosmos 2266 Rocket 4.0 18:43:31 10° N 18:49:55 86° W 18:56:21 10° S
Cosmos 1812 4.1 18:48:03 10° SW 18:51:36 37° WNW 18:51:36 37° WNW
Cosmos 841 Rocket 4.4 18:50:51 10° SW 18:55:48 46° WNW 18:57:22 35° NNW
YAOGAN 1 4.1 18:59:29 30° NW 18:59:29 30° NW 19:01:51 10° NNW
Cosmos 1125 Rocket 3.6 18:52:49 10° NNW 18:57:27 68° NW 18:57:27 68° NW
USA 307 4.2 18:54:39 10° WNW 18:57:22 37° WNW 18:57:22 37° WNW
SL-16 R/B 2.2 18:53:59 10° NNW 18:59:21 80° NW 18:59:21 80° NW
Cosmos 2237 Rocket 4.4 19:00:28 10° N 19:01:32 13° N 19:01:32 13° N
Meteor 2-15 Rocket 4.3 18:57:42 10° S 19:03:21 77° S 19:03:21 77° S
Cosmos 2082 Rocket 2.7 18:59:47 10° SW 19:05:22 56° NW 19:06:21 49° NNW
Okean O Rocket 3.7 19:03:49 10° SSW 19:07:34 26° W 19:11:21 10° NW
Cosmos 2333 Rocket 3.8 19:03:36 10° NNW 19:06:12 24° N 19:06:12 24° N
ATLAS CENTAUR R/B 4.1 19:10:59 10° NW 19:12:21 14° NNW 19:12:21 14° NNW
NOSS 3-4 (A) 4.4 19:12:06 10° NW 19:17:14 42° N 19:17:14 42° N
NOSS 3-4 (C) 4.4 19:12:12 10° NW 19:17:20 42° N 19:17:20 42° N
ATLAS 2AS CENTAUR R/B 3.8 19:14:33 10° NW 19:20:53 35° N 19:20:53 35° N
COSMOS 2455 3.6 19:21:00 10° WSW 19:26:47 47° NW 19:27:05 46° NNW
Cosmos 1833 Rocket 4.5 19:25:37 10° W 19:30:12 25° NW 19:31:31 23° NNW
Lacrosse 5 rocket 4.1 19:31:11 10° WNW 19:32:06 16° WNW 19:32:06 16° WNW
Cosmos 2219 Rocket 4.2 19:32:28 10° NNW 19:34:05 19° NNW 19:34:05 19° NNW
Cosmos 2360 Rocket 4.2 20:02:02 10° NW 20:04:00 22° NW 20:04:00 22° NW
Cosmos 2322 Rocket 4.4 20:21:35 10° NW 20:23:46 20° WNW 20:23:46 20° WNW
